Time,TemperatureF,DewpointF,PressureIn,WindDirection,WindDirectionDegrees,WindSpeedMPH,WindSpeedGustMPH,Humidity,HourlyPrecipIn,Conditions,Clouds,dailyrainin,SolarRadiationWatts/m^2,SoftwareType,DateUTC
2013-03-29 00:22:00,44.0,29.0,-100.00,SSW,192,0.0,3.0,56,0.00,,,-99.99,0.000000,,2013-03-29 06:22:00,
2013-03-29 00:32:00,44.0,29.0,-100.00,SSW,192,0.0,3.0,56,0.00,,,-99.99,0.000000,,2013-03-29 06:32:00,
2013-03-29 00:42:00,44.0,29.0,-100.00,SSW,192,0.0,3.0,56,0.00,,,-99.99,0.000000,,2013-03-29 06:42:00,
2013-03-29 00:52:00,44.0,29.0,-100.00,SSW,192,0.0,3.0,56,0.00,,,-99.99,0.000000,,2013-03-29 06:52:00,
2013-03-29 01:22:00,42.0,28.0,-100.00,East,93,0.0,2.0,57,0.00,,,-99.99,0.000000,,2013-03-29 07:22:00,
2013-03-29 01:32:00,42.0,28.0,-100.00,East,93,0.0,2.0,57,0.00,,,-99.99,0.000000,,2013-03-29 07:32:00,
2013-03-29 01:42:00,42.0,28.0,-100.00,East,93,0.0,2.0,57,0.00,,,-99.99,0.000000,,2013-03-29 07:42:00,
2013-03-29 01:52:00,42.0,28.0,-100.00,East,93,0.0,2.0,57,0.00,,,-99.99,0.000000,,2013-03-29 07:52:00,
2013-03-29 02:22:00,41.0,29.0,-100.00,NW,308,0.0,2.0,62,0.00,,,-99.99,0.000000,,2013-03-29 08:22:00,
2013-03-29 02:32:00,41.0,29.0,-100.00,NW,308,0.0,2.0,62,0.00,,,-99.99,0.000000,,2013-03-29 08:32:00,
2013-03-29 02:42:00,41.0,29.0,-100.00,NW,308,0.0,2.0,62,0.00,,,-99.99,0.000000,,2013-03-29 08:42:00,
2013-03-29 02:52:00,41.0,29.0,-100.00,NW,308,0.0,2.0,62,0.00,,,-99.99,0.000000,,2013-03-29 08:52:00,
2013-03-29 03:22:00,39.0,30.0,-100.00,ESE,117,0.0,1.0,69,0.00,,,-99.99,0.000000,,2013-03-29 09:22:00,
2013-03-29 03:32:00,39.0,30.0,-100.00,ESE,117,0.0,1.0,69,0.00,,,-99.99,0.000000,,2013-03-29 09:32:00,
2013-03-29 03:42:00,39.0,30.0,-100.00,ESE,117,0.0,1.0,69,0.00,,,-99.99,0.000000,,2013-03-29 09:42:00,
2013-03-29 03:52:00,39.0,30.0,-100.00,ESE,117,0.0,1.0,69,0.00,,,-99.99,0.000000,,2013-03-29 09:52:00,
2013-03-29 04:22:00,38.0,29.0,-100.00,ESE,102,0.0,2.0,69,0.00,,,-99.99,0.000000,,2013-03-29 10:22:00,
2013-03-29 04:33:00,38.0,29.0,-100.00,ESE,102,0.0,2.0,69,0.00,,,-99.99,0.000000,,2013-03-29 10:33:00,
2013-03-29 04:42:00,38.0,29.0,-100.00,ESE,102,0.0,2.0,69,0.00,,,-99.99,0.000000,,2013-03-29 10:42:00,
2013-03-29 04:52:00,38.0,29.0,-100.00,ESE,102,0.0,2.0,69,0.00,,,-99.99,0.000000,,2013-03-29 10:52:00,
2013-03-29 05:23:00,37.0,34.0,-100.00,West,259,1.0,5.0,89,0.00,,,-99.99,0.000000,,2013-03-29 11:23:00,
2013-03-29 05:32:00,37.0,34.0,-100.00,West,259,1.0,5.0,89,0.00,,,-99.99,0.000000,,2013-03-29 11:32:00,
2013-03-29 05:42:00,37.0,34.0,-100.00,West,259,1.0,5.0,89,0.00,,,-99.99,0.000000,,2013-03-29 11:42:00,
2013-03-29 05:52:00,37.0,34.0,-100.00,West,259,1.0,5.0,89,0.00,,,-99.99,0.000000,,2013-03-29 11:52:00,
2013-03-29 06:22:00,36.0,35.0,-100.00,East,83,2.0,4.0,97,0.07,,,-99.99,0.000000,,2013-03-29 12:22:00,
2013-03-29 06:32:00,36.0,35.0,-100.00,East,83,2.0,4.0,97,0.07,,,-99.99,0.000000,,2013-03-29 12:32:00,
2013-03-29 06:42:00,36.0,35.0,-100.00,East,83,2.0,4.0,97,0.07,,,-99.99,0.000000,,2013-03-29 12:42:00,
2013-03-29 06:52:00,36.0,35.0,-100.00,East,83,2.0,4.0,97,0.07,,,-99.99,0.000000,,2013-03-29 12:52:00,
2013-03-29 07:22:00,35.0,34.0,-100.00,ESE,103,0.0,3.0,97,0.00,,,-99.99,0.000000,,2013-03-29 13:22:00,
2013-03-29 07:32:00,35.0,34.0,-100.00,ESE,103,0.0,3.0,97,0.00,,,-99.99,0.000000,,2013-03-29 13:32:00,
2013-03-29 07:42:00,35.0,34.0,-100.00,ESE,103,0.0,3.0,97,0.00,,,-99.99,0.000000,,2013-03-29 13:42:00,
2013-03-29 07:52:00,35.0,34.0,-100.00,ESE,103,0.0,3.0,97,0.00,,,-99.99,0.000000,,2013-03-29 13:52:00,
2013-03-29 08:22:00,35.0,34.0,-100.00,East,95,1.0,3.0,98,0.00,,,-99.99,2.000000,,2013-03-29 14:22:00,
2013-03-29 08:32:00,35.0,34.0,-100.00,East,95,1.0,3.0,98,0.00,,,-99.99,2.000000,,2013-03-29 14:32:00,
2013-03-29 08:42:00,35.0,34.0,-100.00,East,95,1.0,3.0,98,0.00,,,-99.99,2.000000,,2013-03-29 14:42:00,
2013-03-29 08:52:00,35.0,34.0,-100.00,East,95,1.0,3.0,98,0.00,,,-99.99,2.000000,,2013-03-29 14:52:00,
2013-03-29 09:22:00,37.0,36.0,-100.00,East,97,0.0,3.0,98,0.00,,,-99.99,50.000000,,2013-03-29 15:22:00,
2013-03-29 09:33:00,37.0,36.0,-100.00,East,97,0.0,3.0,98,0.00,,,-99.99,50.000000,,2013-03-29 15:33:00,
2013-03-29 09:42:00,37.0,36.0,-100.00,East,97,0.0,3.0,98,0.00,,,-99.99,50.000000,,2013-03-29 15:42:00,
2013-03-29 09:52:00,37.0,36.0,-100.00,East,97,0.0,3.0,98,0.00,,,-99.99,50.000000,,2013-03-29 15:52:00,
2013-03-29 10:23:00,42.0,39.0,-100.00,NE,53,1.0,3.0,88,0.00,,,-99.99,137.000000,,2013-03-29 16:23:00,
2013-03-29 10:32:00,42.0,39.0,-100.00,NE,53,1.0,3.0,88,0.00,,,-99.99,137.000000,,2013-03-29 16:32:00,
2013-03-29 10:42:00,42.0,39.0,-100.00,NE,53,1.0,3.0,88,0.00,,,-99.99,137.000000,,2013-03-29 16:42:00,
2013-03-29 11:22:00,43.0,39.0,-100.00,East,101,0.0,3.0,85,0.00,,,0.07,186.000000,,2013-03-29 17:22:00,
2013-03-29 11:33:00,43.0,39.0,-100.00,East,101,0.0,3.0,85,0.00,,,0.07,186.000000,,2013-03-29 17:33:00,
2013-03-29 11:42:00,43.0,39.0,-100.00,East,101,0.0,3.0,85,0.00,,,0.07,186.000000,,2013-03-29 17:42:00,
2013-03-29 11:52:00,43.0,39.0,-100.00,East,101,0.0,3.0,85,0.00,,,0.07,186.000000,,2013-03-29 17:52:00,
2013-03-29 12:22:00,46.0,39.0,-100.00,WSW,250,1.0,4.0,75,0.00,,,0.07,359.000000,,2013-03-29 18:22:00,
2013-03-29 12:32:00,46.0,39.0,-100.00,WSW,250,1.0,4.0,75,0.00,,,0.07,359.000000,,2013-03-29 18:32:00,
2013-03-29 12:42:00,46.0,39.0,-100.00,WSW,250,1.0,4.0,75,0.00,,,0.07,359.000000,,2013-03-29 18:42:00,
2013-03-29 12:52:00,46.0,39.0,-100.00,WSW,250,1.0,4.0,75,0.00,,,0.07,359.000000,,2013-03-29 18:52:00,
2013-03-29 13:22:00,46.0,39.0,-100.00,West,272,2.0,6.0,76,0.00,,,0.07,472.000000,,2013-03-29 19:22:00,
2013-03-29 13:32:00,46.0,39.0,-100.00,West,272,2.0,6.0,76,0.00,,,0.07,472.000000,,2013-03-29 19:32:00,
2013-03-29 13:42:00,46.0,39.0,-100.00,West,272,2.0,6.0,76,0.00,,,0.07,472.000000,,2013-03-29 19:42:00,
2013-03-29 13:52:00,46.0,39.0,-100.00,West,272,2.0,6.0,76,0.00,,,0.07,472.000000,,2013-03-29 19:52:00,
2013-03-29 14:22:00,49.0,38.0,-100.00,WSW,256,2.0,5.0,65,0.00,,,0.07,554.000000,,2013-03-29 20:22:00,
2013-03-29 14:32:00,49.0,38.0,-100.00,WSW,256,2.0,5.0,65,0.00,,,0.07,554.000000,,2013-03-29 20:32:00,
2013-03-29 14:42:00,49.0,38.0,-100.00,WSW,256,2.0,5.0,65,0.00,,,0.07,554.000000,,2013-03-29 20:42:00,
2013-03-29 14:52:00,49.0,38.0,-100.00,WSW,256,2.0,5.0,65,0.00,,,0.07,554.000000,,2013-03-29 20:52:00,
2013-03-29 15:22:00,53.0,36.0,-100.00,WSW,238,4.0,7.0,52,0.00,,,0.07,730.000000,,2013-03-29 21:22:00,
2013-03-29 15:32:00,53.0,36.0,-100.00,WSW,238,4.0,7.0,52,0.00,,,0.07,730.000000,,2013-03-29 21:32:00,
2013-03-29 15:42:00,53.0,36.0,-100.00,WSW,238,4.0,7.0,52,0.00,,,0.07,730.000000,,2013-03-29 21:42:00,
2013-03-29 15:53:00,53.0,36.0,-100.00,WSW,238,4.0,7.0,52,0.00,,,0.07,730.000000,,2013-03-29 21:53:00,
2013-03-29 16:22:00,50.0,37.0,-100.00,NW,316,1.0,6.0,60,0.00,,,0.07,399.000000,,2013-03-29 22:22:00,
2013-03-29 16:33:00,50.0,37.0,-100.00,NW,316,1.0,6.0,60,0.00,,,0.07,399.000000,,2013-03-29 22:33:00,
2013-03-29 16:42:00,50.0,37.0,-100.00,NW,316,1.0,6.0,60,0.00,,,0.07,399.000000,,2013-03-29 22:42:00,
2013-03-29 16:52:00,50.0,37.0,-100.00,NW,316,1.0,6.0,60,0.00,,,0.07,399.000000,,2013-03-29 22:52:00,
2013-03-29 17:22:00,49.0,35.0,-100.00,West,269,2.0,5.0,58,0.00,,,0.07,238.000000,,2013-03-29 23:22:00,
2013-03-29 17:32:00,49.0,35.0,-100.00,West,269,2.0,5.0,58,0.00,,,0.07,238.000000,,2013-03-29 23:32:00,
2013-03-29 17:42:00,49.0,35.0,-100.00,West,269,2.0,5.0,58,0.00,,,0.07,238.000000,,2013-03-29 23:42:00,
2013-03-29 17:52:00,49.0,35.0,-100.00,West,269,2.0,5.0,58,0.00,,,0.07,238.000000,,2013-03-29 23:52:00,
2013-03-29 18:22:00,51.0,34.0,-100.00,WSW,258,2.0,7.0,53,0.00,,,0.07,210.000000,,2013-03-30 00:22:00,
2013-03-29 18:32:00,51.0,34.0,-100.00,WSW,258,2.0,7.0,53,0.00,,,0.07,210.000000,,2013-03-30 00:32:00,
2013-03-29 18:42:00,51.0,34.0,-100.00,WSW,258,2.0,7.0,53,0.00,,,0.07,210.000000,,2013-03-30 00:42:00,
2013-03-29 18:52:00,51.0,34.0,-100.00,WSW,258,2.0,7.0,53,0.00,,,0.07,210.000000,,2013-03-30 00:52:00,
2013-03-29 19:22:00,47.0,36.0,-100.00,West,279,0.0,5.0,66,0.00,,,-99.99,147.000000,,2013-03-30 01:22:00,
2013-03-29 19:32:00,47.0,36.0,-100.00,West,279,0.0,5.0,66,0.00,,,-99.99,147.000000,,2013-03-30 01:32:00,
2013-03-29 19:42:00,47.0,36.0,-100.00,West,279,0.0,5.0,66,0.00,,,-99.99,147.000000,,2013-03-30 01:42:00,
2013-03-29 19:52:00,47.0,36.0,-100.00,West,279,0.0,5.0,66,0.00,,,-99.99,147.000000,,2013-03-30 01:52:00,
2013-03-29 20:22:00,45.0,36.0,-100.00,West,280,0.0,3.0,70,0.00,,,0.07,48.000000,,2013-03-30 02:22:00,
2013-03-29 20:32:00,45.0,36.0,-100.00,West,280,0.0,3.0,70,0.00,,,0.07,48.000000,,2013-03-30 02:32:00,
2013-03-29 20:42:00,45.0,36.0,-100.00,West,280,0.0,3.0,70,0.00,,,0.07,48.000000,,2013-03-30 02:42:00,
2013-03-29 20:52:00,45.0,36.0,-100.00,West,280,0.0,3.0,70,0.00,,,0.07,48.000000,,2013-03-30 02:52:00,
2013-03-29 21:22:00,42.0,35.0,-100.00,SW,235,0.0,1.0,77,0.00,,,0.07,2.000000,,2013-03-30 03:22:00,
2013-03-29 21:33:00,42.0,35.0,-100.00,SW,235,0.0,1.0,77,0.00,,,0.07,2.000000,,2013-03-30 03:33:00,
2013-03-29 21:43:00,42.0,35.0,-100.00,SW,235,0.0,1.0,77,0.00,,,0.07,2.000000,,2013-03-30 03:43:00,
2013-03-29 21:52:00,42.0,35.0,-100.00,SW,235,0.0,1.0,77,0.00,,,0.07,2.000000,,2013-03-30 03:52:00,
2013-03-29 22:23:00,40.0,35.0,-100.00,ENE,68,0.0,1.0,83,0.00,,,0.07,0.000000,,2013-03-30 04:23:00,
2013-03-29 22:32:00,40.0,35.0,-100.00,ENE,68,0.0,1.0,83,0.00,,,0.07,0.000000,,2013-03-30 04:32:00,
2013-03-29 22:42:00,40.0,35.0,-100.00,ENE,68,0.0,1.0,83,0.00,,,0.07,0.000000,,2013-03-30 04:42:00,
2013-03-29 22:52:00,40.0,35.0,-100.00,ENE,68,0.0,1.0,83,0.00,,,0.07,0.000000,,2013-03-30 04:52:00,
2013-03-29 23:22:00,38.0,35.0,-100.00,SW,225,0.0,2.0,89,0.00,,,0.07,0.000000,,2013-03-30 05:22:00,
2013-03-29 23:32:00,38.0,35.0,-100.00,SW,225,0.0,2.0,89,0.00,,,0.07,0.000000,,2013-03-30 05:32:00,
2013-03-29 23:42:00,38.0,35.0,-100.00,SW,225,0.0,2.0,89,0.00,,,0.07,0.000000,,2013-03-30 05:42:00,
2013-03-29 23:52:00,38.0,35.0,-100.00,SW,225,0.0,2.0,89,0.00,,,0.07,0.000000,,2013-03-30 05:52:00,